Temp
2 2 1 1 1 1 1 0 0 0 0 0 0 0 0 0 0 0 0 0 1 1 1 1 2 2 2
1 1 0 1 0 0 -0 -0 -0 0 0 0 0 0 0 0 0 0 0 0 0 0 0 1 1 1 2
0 0 -0 -0 -1 -1 -0 0 -0 -0 -1 -0 -1 -1 -0 -0 0 0 0 0 0 0 0 0 0 1 1
-1 -1 -1 -1 -1 -0 -0 -1 -1 -1 -1 -1 -1 -1 -1 -0 -1 -1 -1 -1 -0 -0 -0 -0 -1 -0 0
-2 -1 -1 -1 -1 -1 -1 -2 -2 -2 -2 -2 -1 -2 -2 -2 -1 -1 -1 -1 -0 -1 -1 -1 -0 -1 -0
-2 -2 -1 -1 -1 -2 -3 -3 -3 -2 -2 -3 -3 -2 -2 -2 -1 -1 -1 -1 -1 -0 -0 -0 -0 -0 -0
-2 -1 -2 -2 -3 -3 -3 -3 -3 -3 -3 -4 -3 -3 -2 -2 -2 -1 -1 -1 -1 -1 -0 -0 -0 -0 -0
-1 -2 -2 -3 -4 -4 -3 -4 -4 -4 -3 -4 -3 -3 -3 -3 -3 -2 -2 -1 -1 -0 -0 -0 0 -0 -1
-2 -3 -3 -2 -2 -3 -4 -4 -4 -4 -4 -4 -4 -3 -4 -4 -4 -2 -1 -1 -1 -1 -1 -0 0 0 -0
-4 -3 -3 -3 -3 -3 -4 -4 -4 -5 -4 -4 -5 -5 -5 -3 -3 -3 -3 -3 -2 -2 -1 -0 -0 -1 -1
-4 -4 -4 -4 -4 -4 -5 -5 -5 -5 -5 -6 -6 -6 -6 -5 -4 -4 -4 -3 -2 -2 -2 -1 -1 -0 -1
-4 -4 -5 -5 -5 -6 -6 -6 -6 -6 -6 -6 -6 -6 -6 -5 -5 -4 -4 -3 -3 -2 -3 -2 -1 -1 -1
-5 -5 -5 -6 -6 -6 -6 -6 -6 -6 -6 -6 -6 -6 -5 -5 -5 -4 -3 -3 -3 -3 -2 -2 -1 -1 -2
-6 -6 -6 -6 -6 -6 -6 -6 -6 -6 -5 -5 -5 -5 -5 -4 -4 -4 -3 -3 -2 -2 -2 -2 -1 -1 -1
-6 -7 -7 -7 -6 -6 -6 -6 -6 -6 -5 -5 -5 -5 -4 -4 -3 -3 -2 -2 -1 -1 -2 -1 -1 -0 -1
-7 -7 -7 -7 -7 -6 -6 -6 -6 -5 -5 -5 -4 -4 -3 -2 -1 -2 -2 -2 -2 -2 -2 -1 -1 -0 -1
-7 -7 -7 -7 -6 -7 -6 -6 -5 -5 -5 -4 -4 -4 -3 -3 -1 -1 -2 -3 -3 -2 -1 -1 -1 -1 -1
Height
764 761 757 753 749 745 741 736 731 727 723 718 714 709 705 701 696 692 688 684 680 677 675 673 671 669 668
758 755 752 748 744 739 735 730 724 719 715 710 705 701 696 691 686 682 678 674 671 668 666 663 660 659 658
750 750 747 744 737 733 728 721 717 713 708 702 697 691 686 681 676 672 668 664 661 658 654 652 650 648 646
749 743 741 737 733 726 719 717 710 706 701 693 689 682 677 672 667 662 658 655 651 648 644 641 639 637 635
745 739 733 729 726 721 715 710 704 698 693 683 680 674 668 662 658 652 648 644 641 637 633 630 627 625 624
740 734 729 725 720 717 712 705 693 692 686 678 673 664 659 653 648 643 639 634 630 626 622 619 616 613 611
735 731 724 721 717 711 705 699 691 685 683 673 664 655 650 643 638 633 629 624 619 615 611 608 604 601 598
730 725 721 715 711 705 699 693 684 677 677 667 657 647 641 635 629 623 618 614 609 605 601 597 593 589 585
724 720 714 709 705 700 694 689 678 668 668 662 651 643 634 623 617 613 609 604 600 595 590 585 581 576 571
717 712 708 704 700 696 691 684 676 663 660 656 648 645 627 616 610 606 599 594 590 585 579 574 570 564 557
712 707 703 698 694 690 686 681 673 662 654 654 644 639 635 616 603 599 595 584 580 574 567 562 558 553 544
709 703 698 692 687 683 677 672 667 658 648 648 639 633 624 613 601 588 584 578 572 564 557 550 544 538 533
705 699 694 688 681 674 668 663 657 649 642 637 632 624 619 608 597 587 579 569 563 555 547 540 532 525 516
701 694 688 682 675 669 662 655 649 637 633 629 623 617 608 601 592 579 573 566 556 547 539 530 521 514 505
696 690 683 677 669 663 657 650 644 635 625 618 614 609 600 592 581 571 564 556 547 539 531 520 508 501 494
692 686 679 672 665 657 652 646 638 630 622 613 605 596 587 579 575 565 558 550 540 532 524 514 501 492 485
688 681 674 667 661 653 647 640 632 625 616 609 601 594 582 570 559 561 555 544 533 524 517 509 498 487 479
Wind_Speed
24 23 26 28 29 29 28 32 35 34 37 35 35 35 36 36 38 38 38 38 39 40 41 41 40 41 41
24 25 26 27 31 29 29 30 37 29 33 35 36 37 37 37 38 38 38 39 39 40 40 42 42 41 42
27 25 27 28 31 25 33 27 27 30 33 35 37 38 37 36 37 38 39 39 40 41 41 41 42 43 44
27 29 28 27 25 28 25 26 28 30 34 35 35 36 35 37 39 39 38 37 37 37 38 39 39 40 42
26 27 24 26 25 24 26 27 35 32 27 38 27 35 37 36 36 35 34 35 36 37 38 39 41 41 42
27 22 29 26 25 25 30 27 12 31 22 37 33 35 34 34 34 36 37 36 36 36 37 38 39 40 41
32 27 27 28 30 31 30 26 30 34 31 30 33 35 34 36 35 36 38 38 36 34 34 35 37 38 39
27 28 29 32 32 29 30 32 35 34 26 15 33 36 34 33 40 38 33 30 29 31 34 38 39 40 42
27 31 34 33 31 28 25 24 16 30 27 26 26 28 36 40 34 26 28 31 36 33 35 35 37 40 41
30 30 27 26 25 25 25 21 21 19 24 18 25 21 7 25 26 33 32 34 34 36 34 35 37 39 36
27 24 25 25 25 24 26 25 25 28 37 28 25 28 18 22 28 31 35 35 32 36 36 36 35 36 36
23 24 25 26 27 28 31 32 32 36 43 35 29 29 27 19 16 33 36 36 34 35 37 37 37 39 39
22 25 25 29 32 31 30 29 30 34 35 35 33 32 29 27 23 32 33 37 39 35 33 35 37 37 36
23 27 28 28 28 27 27 28 27 31 30 28 29 29 29 30 31 30 32 19 35 35 34 37 37 35 33
24 26 27 26 27 27 26 26 23 25 30 31 29 29 33 34 29 31 29 30 33 34 32 33 37 33 29
26 25 25 25 27 28 26 24 22 25 25 29 30 28 27 25 24 25 25 28 32 33 32 22 27 34 31
25 26 26 26 27 26 25 24 24 25 27 28 25 20 13 14 31 18 21 30 31 28 26 25 24 33 33
Wind_Direction
294 299 303 304 300 298 301 297 294 297 297 296 296 295 293 292 290 289 287 285 283 283 281 280 278 275 272
298 303 298 301 299 299 293 293 296 296 300 299 297 297 295 293 292 289 286 285 285 285 282 279 277 274 272
301 302 303 301 300 295 298 294 299 298 300 299 299 297 295 295 292 289 287 287 286 284 281 279 277 274 272
303 300 298 302 299 303 303 303 300 300 298 296 299 294 293 295 292 290 289 287 285 284 282 281 278 276 274
294 298 301 309 306 308 302 308 300 296 300 296 297 296 293 293 291 291 289 288 286 284 282 279 277 275 272
292 301 301 301 306 309 304 301 298 306 303 300 298 293 293 292 292 292 292 290 286 284 282 281 278 276 273
293 295 299 303 304 297 294 299 297 298 298 290 295 293 295 293 294 294 293 290 287 285 284 282 281 279 275
294 297 296 295 290 290 297 296 293 293 293 287 294 292 295 295 296 296 293 290 290 289 288 285 282 279 275
299 297 297 298 299 301 294 296 292 293 299 291 290 297 300 295 292 294 294 295 296 294 291 289 286 283 279
303 302 301 300 299 296 292 287 291 296 300 299 299 306 300 293 297 297 297 297 298 295 293 291 288 285 278
302 301 302 302 300 296 293 288 289 286 288 301 296 296 282 293 295 297 297 298 298 296 294 292 290 286 282
301 301 302 301 302 300 296 291 285 277 291 290 281 283 286 288 291 300 298 298 298 295 292 290 288 288 284
300 298 299 298 300 299 299 295 294 290 287 286 278 280 278 279 285 289 294 300 297 291 292 293 294 293 289
299 297 299 301 299 299 298 300 297 296 299 295 291 285 282 279 280 283 290 289 291 291 294 295 296 293 288
299 301 301 301 300 302 299 299 295 299 303 306 304 295 281 276 279 282 287 289 294 298 299 298 300 300 299
302 299 300 301 302 304 303 299 297 299 299 302 306 304 301 292 277 281 291 294 298 301 299 297 299 309 311
301 300 301 300 304 302 303 302 303 303 299 301 305 303 306 309 314 307 303 299 299 300 305 303 299 308 312